Hourly Data Report for May 04, 2021

WIARTON A
ONTARIO
Current Station Operator: NAVCAN

44°44'39.000" N
81°06'31.000" W
221.90 m
6119499
71633
YVV

Download Data

Hourly Data (May 2021)
Hourly Data Report for May 4, 2021
TIME
LST
Temp Definition
°C
Dew Point Definition
°C
Rel Hum Definition
%
Precip. Amount Definition
mm

Wind Dir Definition
10's deg

Wind Spd Definition
km/h
Visibility Definition
km
Stn Press Definition
kPa
Hmdx Definition


Wind Chill Definition


Weather Definition


00:00 8.0 6.7 91   9 15 12.9 97.88     LegendNANA
01:00 7.7 6.9 95   8 10 9.7 97.86     Drizzle, Fog
02:00 7.3 6.8 97   8 10 6.4 97.82     Drizzle, Fog
03:00 7.0 6.5 96   6 7 6.4 97.82     Fog
04:00 6.9 6.4 97   6 9 6.4 97.74     Fog
05:00 7.2 6.6 96   9 9 6.4 97.74     Fog
06:00 7.4 6.8 96   7 7 16.1 97.73     LegendNANA
07:00 7.4 7.1 98   4 3 6.4 97.75     Rain, Fog
08:00 6.8 6.6 99   36 2 3.2 97.79     Rain, Fog
09:00 7.9 7.8 99   4 5 2.4 97.76     Rain, Fog
10:00 7.3 7.2 99   2 5 1.6 97.72     Rain, Fog
11:00 7.1 7.0 99   34 4 1.2 97.74     Drizzle, Fog
12:00 9.2 9.2 100   34 5 0.8 97.73     Fog
13:00 8.2 8.1 99   1 5 1.2 97.76     Drizzle, Fog
14:00 8.2 8.1 99   1 5 3.2 97.74     Fog
15:00 8.0 7.7 98   32 5 6.4 97.76     Fog
16:00 7.1 7.0 99   36 3 1.2 97.80     Drizzle, Fog
17:00 8.8 8.7 99   27 12 1.2 97.84     Rain, Fog
18:00 7.7 7.7 100   30 10 1.6 97.91     Drizzle, Fog
19:00 6.8 6.7 99   31 9 8.1 98.06     Drizzle, Fog
20:00 6.7 6.5 99   29 8 8.1 98.10     Drizzle, Fog
21:00 6.3 6.2 99   29 11 4.8 98.13     Drizzle, Fog
22:00 6.5 6.3 99   28 7 6.4 98.15     Fog
23:00 5.7 5.3 98   29 14 8.1 98.17     Fog

Notes on Data Quality.

Legend

  • E = Estimated
  • M = Missing
  • NA = Not Available*
  • [empty] = Indicates an unobserved value
Date modified: